Terminal Aerodrome Forecast
Issued by NWS

Home | Current Version | Previous Version | Text Only | Print | Product List | Glossary On
Versions: 1 2 3 4 5 6 7 8 9 10 11 12 13 14 15 16 17 18 19 20 21 22 23 24 25 26 27 28 29 30 31 32 33
000
FTUS46 KLOX 220543
TAFLAX
TAF
KLAX 220543Z 2206/2312 26012KT P6SM SCT025 BKN100
     FM221200 25008KT P6SM VCSH BKN025 OVC050
     FM221800 25008KT P6SM VCSH SCT025 OVC035
     FM222100 25015G20KT P6SM BKN040
     FM230400 27012KT P6SM BKN035
     FM230900 28007KT P6SM BKN025=

USA.gov is the U.S. government's official web portal to all federal, state and local government web resources and services.